Tracking 28081 objects as of 26-Sep-2023
HD Live streaming from Space Station
objects crossing your sky now

IRIDIUM 71

Track IRIDIUM 71 now!
10-day predictions
IRIDIUM 71 is classified as:


NORAD ID: 25320
Int'l Code: 1998-026B
Perigee: 763.7 km
Apogee: 768.1 km
Inclination: 86.4 °
Period: 100.0 minutes
Semi major axis: 7136 km
RCS: 4.0318 m2 (large)
Launch date: May 2, 1998
Source: United States (US)
Launch site: Taiyaun Space Center, China (TSC)
Your satellite tracking list
Your tracking list is empty




NASA's NSSDC Master Catalog

Two Line Element Set (TLE):
1 25320U 98026B   23268.53570191  .00000861  00000-0  26769-3 0  9997
2 25320  86.4040 356.2754 0003121  50.1540 309.9933 14.39915720332803
Source of the keplerian elements: AFSPC